[[{"header":{"parameterUnit":"m.s-1","parameterCategory":1,"la1":30.2991,"la2":30.254,"lo1":-89.0895,"lo2":-89.0444,"dy":0.0017,"dx":0.0017,"nx":28,"ny":28,"refTime":"2023-07-20T21:00:00:Z","depth":0,"parameterNumber":2,"parameterNumberName":"U-component_of_WINDS"},"data":[0,0,0,0,0,0,0,0,0,0,0,0,0,0,0,0,0,0,0,0,0,0,0,0,0,0,0,0,0,0,0,0,0,0,0,0,0,0,0,0,0,0,0,0,0,0,0,0,0,0,0,0,0,0,0,0,0,0,1.8788,1.879,0,1.8929,1.8931,1.8932,1.8953,1.8952,1.8951,1.895,1.9098,1.9103,1.9108,0,0,0,0,0,0,0,0,0,0,0,0,0,1.8539,1.8543,1.8788,1.879,1.8792,1.8929,1.8931,1.8933,1.8954,1.8952,1.8951,1.8949,1.9096,1.9102,1.9108,0,0,0,0,0,0,0,0,0,0,0,0,0,1.866,1.8545,1.8788,1.8819,1.8823,1.8929,1.8931,1.8933,1.8954,1.8952,1.895,1.8948,1.9094,1.9101,1.9109,1.9195,0,0,1.9133,1.9136,0,0,0,0,0,0,0,0,1.8653,1.8669,1.8812,1.8817,1.8821,1.8922,1.8897,1.9021,1.8955,1.8904,1.895,1.8947,1.9041,1.9053,1.9084,1.9202,1.9208,1.9133,1.9138,1.9141,1.9143,0,0,0,0,0,0,0,1.8645,1.8663,1.8844,1.8814,1.882,1.8826,1.8841,1.8921,1.8982,1.8908,1.891,1.8927,1.9043,1.9076,1.9087,1.9211,1.9133,1.914,1.9145,1.9148,1.9405,1.9407,0,0,0,0,0,0,1.8631,1.8656,1.884,1.8848,1.8731,1.8832,1.8849,1.8892,1.8981,1.8993,1.8928,1.8927,1.9064,1.9078,1.9093,1.9198,1.9141,1.9148,1.9153,1.9403,1.9406,1.9408,0,0,0,0,0,0,1.8625,1.8647,1.8834,1.8753,1.8777,1.8838,1.8886,1.8895,1.8928,1.8996,1.9007,1.8951,1.9063,1.9082,1.9169,1.9203,1.9152,1.9159,1.9401,1.9404,1.9407,1.941,0,0,0,0,0,0,1.8618,1.8645,1.8678,1.8753,1.8781,1.8907,1.8888,1.8899,1.8941,1.8941,1.902,1.9031,1.9063,1.9157,1.9176,1.9213,1.9165,1.9398,1.9402,1.9406,1.9407,1.9413,1.9418,0,0,0,0,0,1.8609,1.8674,1.8679,1.8701,1.8824,1.8909,1.8925,1.896,1.8944,1.8978,1.9021,1.9028,1.9197,1.9166,1.9188,1.9227,1.9396,1.9401,1.9406,1.9405,1.9412,1.9418,0,0,0,0,0,0,1.8602,1.8684,1.8691,1.8783,1.8838,1.8912,1.8956,1.8967,1.9029,1.9027,1.9068,1.9085,1.917,1.9208,1.9172,1.9315,1.9295,1.9305,1.9287,1.9294,1.93,1.9289,1.9171,0,0,0,0,0,1.8611,1.8673,1.8742,1.8816,1.8843,1.8895,1.8933,1.8955,1.9015,1.9039,1.9089,1.9147,1.9213,1.9256,1.9321,1.9413,1.943,1.9451,1.9456,1.9461,1.9468,1.9518,1.9528,1.9425,1.9425,1.9425,0,0,1.863,1.8683,1.872,1.8816,1.8862,1.8925,1.8915,1.8983,1.903,1.905,1.9134,1.9173,1.9241,1.9331,1.9373,1.9365,1.9501,1.9467,1.947,1.9475,1.9525,1.9534,1.9543,1.9428,1.9427,1.9427,0,0,1.8698,1.8744,1.881,1.8856,1.8925,1.8958,1.8974,1.9047,1.9072,1.9157,1.9173,1.9231,1.9344,1.9391,1.943,1.9514,1.9523,1.9534,1.9563,1.9611,1.9619,1.9627,1.9655,1.9665,1.9542,1.9542,1.9542,0,1.8713,1.8809,1.8843,1.891,1.8951,1.897,1.9037,1.9081,1.9168,1.9196,1.9185,1.9326,1.9374,1.9474,1.9494,1.9526,1.9545,1.9525,1.9615,1.9623,1.9631,1.9658,1.9669,1.9543,1.9542,1.9542,1.9542,0,1.8824,1.8889,1.8935,1.9016,1.9063,1.913,1.9174,1.9218,1.9235,1.9269,1.9355,1.9413,1.9489,1.9514,1.9533,1.9617,1.9609,1.9607,1.9588,1.964,1.9667,1.9678,1.9544,1.9543,1.9543,1.9543,0,0,1.8891,1.899,1.9006,1.9042,1.9119,1.9171,1.9239,1.9311,1.9347,1.9406,1.9463,1.9558,1.9555,1.9599,1.9623,1.9666,1.9726,1.9658,1.966,1.9667,1.9821,1.9822,1.9834,1.9733,1.9735,1.9737,1.9815,0,1.8966,1.9085,1.9118,1.9219,1.928,1.9299,1.9357,1.9411,1.9445,1.9502,1.954,1.9606,1.9598,1.9625,1.9668,1.971,1.9758,1.9705,1.9786,1.9789,1.9767,1.9848,1.9849,1.992,1.9826,1.9828,1.9829,0,1.907,1.913,1.9236,1.9304,1.9331,1.9383,1.9451,1.9506,1.9567,1.9589,1.9637,1.9656,1.9727,1.9704,1.9802,1.9765,1.9801,1.9826,1.983,1.9838,1.9811,1.9857,1.9944,1.9954,1.9846,1.9845,1.9844,0,1.9106,1.9214,1.9291,1.9322,1.9404,1.9439,1.9475,1.9534,1.9575,1.9636,1.9663,1.9731,1.9768,1.982,1.9858,1.9838,1.9952,1.9933,1.9972,1.9971,1.9994,1.9992,2.0087,2.0019,2.0019,2.0019,2.0018,0,1.9187,1.9251,1.9308,1.9356,1.9428,1.9465,1.9536,1.9572,1.9625,1.968,1.9701,1.9752,1.9799,1.9856,1.9886,1.9962,1.9979,1.9999,2.0005,1.9996,1.9993,2.0019,2.0015,2.0021,2.0021,2.002,2.002,0,1.9239,1.928,1.9366,1.9435,1.9454,1.9504,1.9564,1.9611,1.9645,1.9715,1.9733,1.9787,1.9856,1.9898,1.9986,2.0006,2.0089,2.0095,2.0068,2.0071,2.0107,2.0102,2.022,2.0237,2.0159,2.016,2.016,0,1.9287,1.9337,1.9411,1.9449,1.9485,1.9546,1.9587,1.9625,1.9668,1.974,1.9778,1.9848,1.9906,2.0015,2.0062,2.0129,2.0136,2.0173,2.0146,2.0134,2.0135,2.0131,2.0135,2.0177,2.0177,2.0178,2.0178,0,1.9367,1.9385,1.9443,1.9509,1.9557,1.9611,1.9665,1.9695,1.9742,1.9789,1.9858,1.9903,1.9991,2.006,2.0131,2.0168,2.0181,2.0186,2.0199,2.0189,2.017,2.0179,2.0078,2.0183,2.0183,2.0182,2.0182,2.0182,1.9418,1.9462,1.9521,1.9586,1.963,1.9679,1.9726,1.9765,1.9824,1.9898,1.9917,1.999,2.0049,2.0145,2.0184,2.0241,2.0236,2.0254,2.0259,2.0262,2.0262,2.0162,2.0255,2.0254,2.0254,2.0254,2.0254,0,1.9498,1.9536,1.9595,1.9669,1.9719,1.9726,1.9785,1.9827,1.989,1.9944,2.0,2.0079,2.0146,2.0198,2.0266,2.0302,2.0309,2.0318,2.0316,2.0324,2.0264,2.0245,2.0311,2.0311,2.0311,2.0311,2.0311,2.0311,1.9545,1.962,1.9644,1.9741,1.978,1.985,1.9883,1.9929,1.9971,2.0059,2.0113,2.0146,2.02,2.0271,2.0332,2.0346,2.037,2.0377,2.0392,2.0335,2.0328,2.0322,2.0305,2.0382,2.0383,2.0447,2.0448,2.0448]},{"header":{"parameterUnit":"m.s-1","parameterCategory":1,"la1":30.2991,"la2":30.254,"lo1":-89.0895,"lo2":-89.0444,"dy":0.0017,"dx":0.0017,"nx":28,"ny":28,"refTime":"2023-07-20T21:00:00:Z","depth":0,"parameterNumber":3,"parameterNumberName":"V-component_of_WINDS"},"data":[0,0,0,0,0,0,0,0,0,0,0,0,0,0,0,0,0,0,0,0,0,0,0,0,0,0,0,0,0,0,0,0,0,0,0,0,0,0,0,0,0,0,0,0,0,0,0,0,0,0,0,0,0,0,0,0,0,0,4.5354,4.5354,0,4.5358,4.5358,4.5358,4.5348,4.5348,4.5348,4.5347,4.5348,4.5348,4.5349,0,0,0,0,0,0,0,0,0,0,0,0,0,4.5331,4.5332,4.5354,4.5354,4.5354,4.5358,4.5358,4.5358,4.5348,4.5348,4.5348,4.5347,4.5348,4.5348,4.5349,0,0,0,0,0,0,0,0,0,0,0,0,0,4.5339,4.5332,4.5354,4.535,4.5349,4.5358,4.5358,4.5358,4.5348,4.5348,4.5348,4.5347,4.5348,4.5348,4.5349,4.5361,0,0,4.535,4.535,0,0,0,0,0,0,0,0,4.5338,4.534,4.535,4.535,4.535,4.5352,4.535,4.5359,4.5349,4.5349,4.5347,4.5347,4.535,4.535,4.5352,4.5361,4.5361,4.535,4.535,4.5351,4.5351,0,0,0,0,0,0,0,4.5338,4.5339,4.5355,4.535,4.535,4.5346,4.5346,4.5352,4.5351,4.5349,4.5348,4.5349,4.5349,4.5351,4.5351,4.5361,4.535,4.5351,4.5351,4.5351,4.5375,4.5376,0,0,0,0,0,0,4.5339,4.5339,4.5355,4.5355,4.5343,4.5346,4.5347,4.5352,4.5351,4.5351,4.5349,4.5348,4.5351,4.5351,4.5351,4.5363,4.5351,4.5351,4.5351,4.5375,4.5375,4.5376,0,0,0,0,0,0,4.5338,4.534,4.5355,4.5347,4.5349,4.5347,4.5353,4.5352,4.5354,4.5352,4.5351,4.5351,4.535,4.5351,4.5358,4.5363,4.5351,4.5352,4.5374,4.5375,4.5375,4.5387,0,0,0,0,0,0,4.5338,4.534,4.5346,4.5347,4.5349,4.5363,4.5353,4.5353,4.5355,4.5354,4.5354,4.5353,4.535,4.5357,4.5358,4.5363,4.5352,4.5374,4.5375,4.5375,4.5386,4.5388,4.5389,0,0,0,0,0,4.5337,4.535,4.5347,4.5349,4.5357,4.5364,4.5364,4.5361,4.5356,4.5361,4.5358,4.5353,4.5362,4.5358,4.5359,4.5364,4.5374,4.5374,4.5375,4.5386,4.5388,4.5389,0,0,0,0,0,0,4.5349,4.535,4.5347,4.536,4.5362,4.5362,4.5368,4.5364,4.5367,4.5365,4.536,4.536,4.5367,4.5366,4.5362,4.5373,4.5367,4.5368,4.5374,4.5376,4.5378,4.5377,4.5352,0,0,0,0,0,4.5353,4.536,4.536,4.5372,4.5373,4.537,4.5373,4.537,4.5371,4.5372,4.537,4.537,4.5372,4.5374,4.5377,4.5386,4.5384,4.539,4.5391,4.5393,4.5393,4.5395,4.5397,4.5378,4.5378,4.5378,0,0,4.5362,4.5363,4.5368,4.5374,4.5375,4.538,4.5371,4.5377,4.538,4.5372,4.5378,4.5377,4.5376,4.5383,4.5387,4.5383,4.5398,4.5394,4.5395,4.5395,4.5396,4.5398,4.5399,4.5379,4.5379,4.5379,0,0,4.538,4.5383,4.5392,4.5393,4.5394,4.5392,4.5394,4.5394,4.5392,4.5399,4.5392,4.5394,4.5399,4.5398,4.5398,4.5412,4.5406,4.5412,4.5421,4.5422,4.5424,4.5425,4.5428,4.5429,4.5413,4.5413,4.5413,0,4.5391,4.54,4.5397,4.5403,4.5404,4.5397,4.5404,4.5405,4.5406,4.5406,4.5402,4.5406,4.5406,4.5411,4.5414,4.5415,4.5415,4.5413,4.5424,4.5425,4.5426,4.5429,4.543,4.5414,4.5414,4.5414,4.5414,0,4.5411,4.5417,4.5423,4.5425,4.5427,4.5434,4.5429,4.5432,4.5428,4.5425,4.5429,4.5428,4.5428,4.5429,4.5426,4.5433,4.543,4.5425,4.5418,4.5429,4.5431,4.5432,4.5415,4.5415,4.5415,4.5414,0,0,4.5439,4.5437,4.5439,4.5438,4.5438,4.5441,4.5446,4.5447,4.5447,4.5448,4.545,4.5453,4.5447,4.5447,4.5443,4.5444,4.5452,4.5439,4.5439,4.544,4.5457,4.546,4.5462,4.5448,4.5449,4.5449,4.5457,0,4.5455,4.5464,4.546,4.5469,4.5472,4.5464,4.5467,4.5466,4.5463,4.5464,4.546,4.5461,4.5455,4.5454,4.5456,4.5451,4.5455,4.5451,4.5448,4.5448,4.5448,4.5463,4.5467,4.5475,4.5458,4.5458,4.5458,0,4.5476,4.5477,4.5486,4.5482,4.5483,4.5487,4.5485,4.5487,4.5484,4.5481,4.548,4.5474,4.5476,4.5469,4.5469,4.5466,4.5465,4.5462,4.5462,4.5461,4.5454,4.5461,4.5478,4.5478,4.546,4.546,4.546,0,4.5492,4.5496,4.5501,4.5501,4.5497,4.5499,4.5497,4.5494,4.5494,4.5492,4.5491,4.5489,4.5488,4.5486,4.5479,4.5475,4.5479,4.5472,4.5475,4.5475,4.5476,4.5476,4.5491,4.5477,4.5477,4.5477,4.5477,0,4.551,4.5515,4.5508,4.5511,4.5516,4.5509,4.5514,4.5511,4.5507,4.5508,4.55,4.5501,4.5492,4.549,4.5485,4.5485,4.5484,4.5481,4.5479,4.5481,4.5481,4.548,4.5478,4.5477,4.5477,4.5477,4.5477,0,4.5529,4.5525,4.5529,4.5525,4.5523,4.5527,4.5522,4.5523,4.5519,4.5519,4.5519,4.5511,4.5509,4.5502,4.5498,4.5494,4.5495,4.5492,4.5496,4.5495,4.5498,4.5497,4.5512,4.5512,4.5499,4.5499,4.5499,0,4.554,4.5544,4.5539,4.554,4.5538,4.5539,4.5538,4.5531,4.553,4.5526,4.5527,4.5524,4.5522,4.5518,4.5511,4.5507,4.5503,4.5509,4.5503,4.5504,4.5502,4.5501,4.55,4.551,4.551,4.551,4.551,0,4.556,4.5557,4.5557,4.5555,4.5555,4.5553,4.5551,4.5551,4.5543,4.5542,4.554,4.5538,4.5533,4.5529,4.5524,4.552,4.5513,4.5512,4.5512,4.5514,4.5516,4.5513,4.5498,4.5512,4.5512,4.5512,4.5512,4.5511,4.5574,4.5576,4.5572,4.5572,4.5569,4.5566,4.5567,4.5562,4.5561,4.5557,4.5552,4.555,4.5543,4.5536,4.5532,4.5528,4.5525,4.5526,4.5526,4.5526,4.5526,4.5517,4.5528,4.5527,4.5527,4.5527,4.5527,0,4.5592,4.5588,4.5588,4.5585,4.5583,4.5578,4.5574,4.5573,4.5571,4.5567,4.5564,4.556,4.5556,4.5548,4.5543,4.5542,4.5538,4.554,4.554,4.5539,4.553,4.553,4.5543,4.5543,4.5543,4.5543,4.5543,4.5543,4.5601,4.5603,4.5599,4.5598,4.5595,4.5593,4.5591,4.5588,4.5584,4.558,4.5577,4.5572,4.5565,4.5559,4.5554,4.5552,4.5549,4.5552,4.5549,4.5541,4.5539,4.5538,4.5538,4.5552,4.5552,4.5557,4.5557,4.5557]}]]